Вернуться в каталог

DELTA 1 DEB

АктивенUNKNOWN
NORAD 42578·DEBRIS·🇺🇸 United States

Запущен Nov 6, 1973 с Vandenberg Space Force Base

Loading…

Ближайшие Пролёты (ближайшие 24 часа)

TLE

УстаревающийSource: Space-Track

Эпоха: Aug 24, 2026, 13:45 UTC

1 42578U 73086HS  26236.57332969  .00001547  00000-0  18255-1 0  9992
2 42578 100.6626 102.9619 0830260 307.5351  45.2970 11.39243954 89050

Отслеживайте DELTA 1 DEB в реальном времени с AllMySat

Download on the App Store